Cloud_Cover
11 30 100 99 42 95 100 100 100 90 8 100 98 97 100 58 100 53 92 100 100 97 98 97 100 100 100 100 100 100 100 5 4 0 100 93 8 24 8 59 65 87 5
90 100 100 100 56 100 51 100 100 100 100 100 100 100 96 92 92 99 100 99 100 100 100 22 80 100 100 100 100 100 100 57 6 4 12 100 9 100 76 5 6 88 98
100 100 100 100 99 92 94 99 88 100 100 98 92 95 51 97 100 100 100 100 99 100 100 100 90 95 93 100 100 100 100 100 85 5 11 28 92 100 48 46 14 100 70
100 100 100 100 100 72 75 97 98 87 31 99 100 100 100 76 100 100 100 100 100 99 100 100 100 97 17 95 100 100 100 93 82 5 4 0 70 12 100 5 1 84 51
100 100 100 100 100 100 100 74 100 70 73 100 94 100 89 63 66 85 74 100 100 100 100 100 100 98 9 94 100 100 98 100 89 79 0 0 0 1 43 5 1 20 99
100 100 100 87 95 88 98 100 97 100 100 100 100 100 100 100 100 39 53 100 100 96 100 100 100 100 7 5 53 88 78 100 100 100 17 2 2 0 1 2 5 5 93
100 100 23 100 100 100 34 36 100 100 97 100 100 100 100 100 100 100 33 44 100 6 92 100 100 99 44 5 44 95 32 100 32 100 7 5 5 5 3 5 23 5 98
8 72 52 74 100 100 80 40 45 99 62 98 100 100 97 100 100 100 98 65 94 20 45 36 70 94 99 100 100 100 5 5 82 42 5 5 5 5 5 0 5 5 98
93 95 98 70 76 100 92 84 100 100 100 98 87 90 73 100 100 100 78 76 96 100 48 37 95 27 100 100 83 93 7 5 39 48 5 11 42 5 4 5 0 5 5
55 50 100 94 88 90 100 97 100 100 100 52 30 100 94 98 100 100 100 100 100 100 100 93 5 5 63 12 10 80 30 76 10 74 69 5 5 5 5 5 5 4 5
100 100 89 100 93 82 93 60 72 98 51 86 100 100 99 100 100 100 99 100 100 100 100 100 100 92 87 6 96 43 88 50 5 5 34 57 28 16 39 5 5 5 1
100 97 99 89 95 51 96 72 79 80 100 100 100 100 100 100 100 95 100 54 100 100 100 100 100 100 100 98 98 6 88 5 6 2 4 46 5 6 10 7 10 5 5
86 97 100 88 99 48 84 97 78 100 100 100 100 95 100 100 100 100 100 98 100 100 85 94 100 100 100 59 99 68 90 54 48 5 5 1 16 10 23 17 34 5 5
71 56 100 84 66 100 100 100 96 100 100 100 86 100 100 100 100 100 100 98 100 100 100 100 100 99 100 100 97 100 100 100 100 100 21 26 5 12 5 34 95 99 30
74 100 100 100 100 100 100 100 100 100 100 100 100 100 100 99 100 100 100 100 100 100 100 100 100 100 100 100 100 100 100 100 100 100 100 64 99 43 8 20 5 6 94
100 94 52 49 79 77 94 49 43 61 99 46 80 100 100 100 100 100 100 100 100 100 100 100 100 100 100 100 100 100 100 100 100 85 100 100 100 100 76 5 10 5 3
39 13 11 8 7 24 99 57 54 2 72 89 74 91 82 80 100 100 100 100 100 100 100 100 100 100 100 100 100 100 100 100 97 96 100 100 100 100 100 45 62 14 5
17 5 5 16 58 72 98 23 38 98 98 100 86 84 100 71 56 100 100 100 100 100 100 100 100 100 100 100 100 100 100 100 100 100 93 69 100 100 100 100 93 52 66
8 6 7 68 63 92 93 60 100 100 98 59 93 95 100 100 69 9 0 0 11 95 100 100 100 100 100 100 100 100 100 100 100 100 100 100 100 100 100 100 100 100 28
50 72 55 79 29 30 76 99 98 87 63 24 18 21 6 0 0 5 27 0 0 0 10 70 98 100 100 100 100 100 100 100 100 100 100 100 100 100 100 96 39 100 100
89 56 73 63 64 34 8 11 13 0 0 0 0 0 0 0 0 0 0 0 0 0 0 0 0 0 21 27 91 86 97 100 100 100 100 100 100 100 100 100 96 22 100
73 86 100 93 5 0 0 3 18 0 0 0 0 0 0 0 0 0 0 0 0 0 0 0 0 0 0 0 0 0 0 55 99 100 100 100 100 100 100 92 100 100 83
36 39 29 18 6 1 0 0 0 0 0 0 0 0 0 0 0 0 0 0 0 0 0 0 0 4 2 0 0 0 0 0 0 76 100 100 100 100 100 100 100 100 100
24 8 3 25 5 5 5 0 0 0 6 2 0 0 0 1 0 0 0 0 0 0 2 0 0 0 0 3 0 0 0 4 0 0 26 100 100 100 100 100 100 100 100
5 4 5 5 67 57 5 2 0 0 29 27 26 0 0 0 0 0 0 0 0 0 0 8 0 0 0 0 0 0 0 0 0 0 0 1 100 100 100 100 100 100 100
44 39 54 37 94 6 5 6 5 0 1 2 10 19 25 1 0 0 0 0 0 0 0 0 0 0 6 18 14 4 1 39 4 0 0 8 32 100 100 100 100 100 100